Time,TemperatureF,DewpointF,PressureIn,WindDirection,WindDirectionDegrees,WindSpeedMPH,WindSpeedGustMPH,Humidity,HourlyPrecipIn,Conditions,Clouds,dailyrainin,SoftwareType,DateUTC
2013-06-27 00:10:00,59.0,50.0,-100.00,NW,315,3.0,7.0,72,-99.99,,,-99.99,,2013-06-27 07:10:00,
2013-06-27 02:10:00,57.0,50.0,-100.00,WNW,290,6.0,10.0,77,-99.99,,,-99.99,,2013-06-27 09:10:00,
2013-06-27 02:11:00,58.0,49.0,-100.00,NNW,340,3.0,10.0,71,-99.99,,,-99.99,,2013-06-27 09:11:00,
2013-06-27 04:01:00,57.0,50.0,-100.00,NW,315,2.0,6.0,77,-99.99,,,-99.99,,2013-06-27 11:01:00,
2013-06-27 04:11:00,57.0,50.0,-100.00,NW,315,2.0,6.0,77,-99.99,,,-99.99,,2013-06-27 11:11:00,
2013-06-27 05:10:00,56.0,51.0,-100.00,WNW,295,5.0,7.0,83,-99.99,,,-99.99,,2013-06-27 12:10:00,
2013-06-27 07:10:00,56.0,53.0,-100.00,NW,320,1.0,5.0,89,-99.99,,,-99.99,,2013-06-27 14:10:00,
2013-06-27 07:11:00,56.0,52.0,-100.00,North,5,2.0,5.0,86,-99.99,,,-99.99,,2013-06-27 14:11:00,
2013-06-27 09:11:00,58.0,54.0,-100.00,North,5,1.0,2.0,86,-99.99,,,-99.99,,2013-06-27 16:11:00,
2013-06-27 09:20:00,60.0,55.0,-100.00,NE,35,0.0,2.0,83,-99.99,,,-99.99,,2013-06-27 16:20:00,
2013-06-27 10:10:00,61.0,54.0,-100.00,East,90,0.0,1.0,77,-99.99,,,-99.99,,2013-06-27 17:10:00,
2013-06-27 10:11:00,60.0,55.0,-100.00,NE,35,0.0,2.0,83,-99.99,,,-99.99,,2013-06-27 17:11:00,
2013-06-27 13:10:00,70.0,51.0,-100.00,SSE,150,2.0,3.0,50,-99.99,,,-99.99,,2013-06-27 20:10:00,
2013-06-27 15:13:00,73.0,53.0,-100.00,NNE,15,1.0,5.0,49,-99.99,,,-99.99,,2013-06-27 22:13:00,
2013-06-27 20:10:00,69.0,54.0,-100.00,West,280,6.0,7.0,58,-99.99,,,-99.99,,2013-06-28 03:10:00,
2013-06-27 20:14:00,72.0,53.0,-100.00,WNW,295,5.0,7.0,51,-99.99,,,-99.99,,2013-06-28 03:14:00,
2013-06-27 22:11:00,66.0,55.0,-100.00,WNW,295,5.0,7.0,67,-99.99,,,-99.99,,2013-06-28 05:11:00,
2013-06-27 22:20:00,64.0,56.0,-100.00,West,270,7.0,13.0,75,-99.99,,,-99.99,,2013-06-28 05:20:00,
2013-06-27 23:02:00,64.0,56.0,-100.00,West,270,7.0,13.0,75,-99.99,,,-99.99,,2013-06-28 06:02:00,
2013-06-27 23:10:00,63.0,55.0,-100.00,WNW,285,9.0,13.0,75,-99.99,,,-99.99,,2013-06-28 06:10:00,
2013-06-27 23:12:00,64.0,56.0,-100.00,West,270,7.0,13.0,75,-99.99,,,-99.99,,2013-06-28 06:12:00,